Time,TemperatureF,DewpointF,PressureIn,WindDirection,WindDirectionDegrees,WindSpeedMPH,WindSpeedGustMPH,Humidity,HourlyPrecipIn,Conditions,Clouds,dailyrainin,SoftwareType,DateUTC
2013-05-01 00:01:00,58.5,48.0,30.21,NW,316,3.4,3.8,68,0.00,,CLR,0.00,VWS V14.00,2013-05-01 04:01:00,
2013-05-01 00:02:00,58.5,48.3,30.21,NW,316,0.0,0.0,69,0.00,,CLR,0.00,VWS V14.00,2013-05-01 04:02:00,
2013-05-01 00:04:00,58.5,48.3,30.21,SE,140,3.4,4.8,69,0.00,,CLR,0.00,VWS V14.00,2013-05-01 04:04:00,
2013-05-01 00:09:00,58.3,47.8,30.21,NNE,16,2.5,3.8,68,0.00,,CLR,0.00,VWS V14.00,2013-05-01 04:09:00,
2013-05-01 00:14:00,58.1,48.0,30.21,North,350,3.0,5.9,69,0.00,,CLR,0.00,VWS V14.00,2013-05-01 04:14:00,
2013-05-01 00:19:00,58.1,47.6,30.21,South,185,0.0,2.7,68,0.00,,CLR,0.00,VWS V14.00,2013-05-01 04:19:00,
2013-05-01 00:25:00,58.1,47.6,30.21,South,185,0.0,2.7,68,0.00,,CLR,0.00,VWS V14.00,2013-05-01 04:25:00,
2013-05-01 00:30:00,58.1,47.6,30.21,ESE,109,0.0,0.0,68,0.00,,CLR,0.00,VWS V14.00,2013-05-01 04:30:00,
2013-05-01 00:35:00,57.9,47.4,30.21,NE,56,2.5,3.2,68,0.00,,CLR,0.00,VWS V14.00,2013-05-01 04:35:00,
2013-05-01 00:40:00,57.9,47.4,30.21,NNE,30,0.0,0.0,68,0.00,,CLR,0.00,VWS V14.00,2013-05-01 04:40:00,
2013-05-01 00:45:00,57.9,47.4,30.21,NNE,30,0.0,0.0,68,0.00,,CLR,0.00,VWS V14.00,2013-05-01 04:45:00,
2013-05-01 00:50:00,57.9,47.4,30.21,West,264,0.0,0.0,68,0.00,,CLR,0.00,VWS V14.00,2013-05-01 04:50:00,
2013-05-01 00:55:00,57.7,47.6,30.21,NNW,332,3.0,3.2,69,0.00,,CLR,0.00,VWS V14.00,2013-05-01 04:55:00,
2013-05-01 01:01:00,57.7,47.6,30.21,East,80,3.4,3.8,69,0.00,,CLR,0.00,VWS V14.00,2013-05-01 05:01:00,
2013-05-01 01:06:00,57.5,47.5,30.21,SE,129,0.0,2.7,69,0.00,,CLR,0.00,VWS V14.00,2013-05-01 05:06:00,
2013-05-01 01:11:00,57.5,47.5,30.21,South,182,0.0,0.0,69,0.00,,CLR,0.00,VWS V14.00,2013-05-01 05:11:00,
2013-05-01 01:16:00,57.4,47.3,30.21,East,101,0.0,0.0,69,0.00,,CLR,0.00,VWS V14.00,2013-05-01 05:16:00,
2013-05-01 01:21:00,57.4,47.3,30.21,NE,37,0.0,0.0,69,0.00,,CLR,0.00,VWS V14.00,2013-05-01 05:21:00,
2013-05-01 01:26:00,57.4,47.3,30.21,NE,37,0.0,0.0,69,0.00,,CLR,0.00,VWS V14.00,2013-05-01 05:26:00,
2013-05-01 01:31:00,57.2,47.1,30.21,NE,50,2.5,3.2,69,0.00,,CLR,0.00,VWS V14.00,2013-05-01 05:31:00,
2013-05-01 01:36:00,57.2,47.5,30.21,North,357,3.0,3.2,70,0.00,,CLR,0.00,VWS V14.00,2013-05-01 05:36:00,
2013-05-01 01:41:00,57.0,47.3,30.21,North,353,4.4,7.0,70,0.00,,CLR,0.00,VWS V14.00,2013-05-01 05:41:00,
2013-05-01 01:46:00,57.0,47.3,30.21,NNE,32,0.0,0.0,70,0.00,,CLR,0.00,VWS V14.00,2013-05-01 05:46:00,
2013-05-01 01:52:00,57.0,47.3,30.21,WNW,299,0.0,0.0,70,0.00,,CLR,0.00,VWS V14.00,2013-05-01 05:52:00,
2013-05-01 01:57:00,57.0,47.3,30.21,NNW,346,0.0,0.0,70,0.00,,CLR,0.00,VWS V14.00,2013-05-01 05:57:00,
2013-05-01 02:02:00,57.0,47.3,30.21,NNW,330,0.0,0.0,70,0.00,,CLR,0.00,VWS V14.00,2013-05-01 06:02:00,
2013-05-01 02:07:00,57.0,47.3,30.21,NNW,330,0.0,0.0,70,0.00,,CLR,0.00,VWS V14.00,2013-05-01 06:07:00,
2013-05-01 02:12:00,57.0,47.3,30.21,North,10,0.0,0.0,70,0.00,,CLR,0.00,VWS V14.00,2013-05-01 06:12:00,
2013-05-01 02:17:00,57.0,47.7,30.21,NNE,30,0.0,3.8,71,0.00,,CLR,0.00,VWS V14.00,2013-05-01 06:17:00,
2013-05-01 02:22:00,57.0,47.3,30.21,NNE,30,0.0,0.0,70,0.00,,CLR,0.00,VWS V14.00,2013-05-01 06:22:00,
2013-05-01 02:27:00,57.0,47.7,30.21,NNE,30,0.0,0.0,71,0.00,,CLR,0.00,VWS V14.00,2013-05-01 06:27:00,
2013-05-01 02:32:00,56.8,47.5,30.21,NNE,30,0.0,0.0,71,0.00,,CLR,0.00,VWS V14.00,2013-05-01 06:32:00,
2013-05-01 02:38:00,56.8,47.5,30.21,WSW,247,0.0,2.7,71,0.00,,CLR,0.00,VWS V14.00,2013-05-01 06:38:00,
2013-05-01 02:43:00,56.8,47.5,30.21,WSW,247,0.0,0.0,71,0.00,,CLR,0.00,VWS V14.00,2013-05-01 06:43:00,
2013-05-01 02:48:00,56.8,47.5,30.21,WSW,247,0.0,0.0,71,0.00,,CLR,0.00,VWS V14.00,2013-05-01 06:48:00,
2013-05-01 02:53:00,56.8,47.5,30.21,WSW,247,2.5,2.7,71,0.00,,CLR,0.00,VWS V14.00,2013-05-01 06:53:00,
2013-05-01 02:58:00,56.8,47.5,30.21,WSW,247,0.0,0.0,71,0.00,,CLR,0.00,VWS V14.00,2013-05-01 06:58:00,
2013-05-01 03:03:00,56.6,47.3,30.21,ESE,123,0.0,3.2,71,0.00,,CLR,0.00,VWS V14.00,2013-05-01 07:03:00,
2013-05-01 03:08:00,56.6,47.3,30.21,SE,135,0.0,0.0,71,0.00,,CLR,0.00,VWS V14.00,2013-05-01 07:08:00,
2013-05-01 03:13:00,56.6,47.0,30.21,SE,135,0.0,0.0,70,0.00,,CLR,0.00,VWS V14.00,2013-05-01 07:13:00,
2013-05-01 03:18:00,56.6,47.3,30.21,SE,135,0.0,0.0,71,0.00,,CLR,0.00,VWS V14.00,2013-05-01 07:18:00,
2013-05-01 03:23:00,56.6,47.3,30.21,NNE,33,0.0,4.8,71,0.00,,CLR,0.00,VWS V14.00,2013-05-01 07:23:00,
2013-05-01 03:28:00,56.6,47.0,30.21,WNW,295,2.5,3.2,70,0.00,,CLR,0.00,VWS V14.00,2013-05-01 07:28:00,
2013-05-01 03:33:00,56.4,46.8,30.21,East,89,0.0,2.7,70,0.00,,CLR,0.00,VWS V14.00,2013-05-01 07:33:00,
2013-05-01 03:39:00,56.4,46.8,30.21,South,172,2.5,4.8,70,0.00,,CLR,0.00,VWS V14.00,2013-05-01 07:39:00,
2013-05-01 03:44:00,56.4,46.8,30.21,NNE,21,3.0,3.8,70,0.00,,CLR,0.00,VWS V14.00,2013-05-01 07:44:00,
2013-05-01 03:49:00,56.4,46.8,30.21,South,184,0.0,3.2,70,0.00,,CLR,0.00,VWS V14.00,2013-05-01 07:49:00,
2013-05-01 03:54:00,56.4,46.8,30.21,ESE,115,2.5,2.7,70,0.00,,CLR,0.00,VWS V14.00,2013-05-01 07:54:00,
2013-05-01 03:59:00,56.2,47.0,30.21,WSW,252,0.0,3.2,71,0.00,,CLR,0.00,VWS V14.00,2013-05-01 07:59:00,
2013-05-01 04:04:00,56.2,47.0,30.21,NNE,23,0.0,0.0,71,0.00,,CLR,0.00,VWS V14.00,2013-05-01 08:04:00,
2013-05-01 04:09:00,56.2,47.0,30.21,NE,45,0.0,2.7,71,0.00,,CLR,0.00,VWS V14.00,2013-05-01 08:09:00,
2013-05-01 04:14:00,56.2,47.0,30.21,NE,45,0.0,0.0,71,0.00,,CLR,0.00,VWS V14.00,2013-05-01 08:14:00,
2013-05-01 04:19:00,56.2,47.0,30.24,NNE,19,0.0,0.0,71,0.00,,CLR,0.00,VWS V14.00,2013-05-01 08:19:00,
2013-05-01 04:24:00,56.2,47.3,30.24,East,91,3.0,4.3,72,0.00,,CLR,0.00,VWS V14.00,2013-05-01 08:24:00,
2013-05-01 04:29:00,56.2,47.3,30.24,East,91,0.0,0.0,72,0.00,,CLR,0.00,VWS V14.00,2013-05-01 08:29:00,
2013-05-01 04:35:00,56.2,47.0,30.24,East,91,0.0,0.0,71,0.00,,BKN017,0.00,VWS V14.00,2013-05-01 08:35:00,
2013-05-01 04:46:00,56.1,47.2,30.24,WNW,302,2.5,4.3,72,0.00,,BKN017,0.00,VWS V14.00,2013-05-01 08:46:00,
2013-05-01 04:51:00,56.1,47.2,30.24,SW,232,3.4,4.8,72,0.00,,BKN017,0.00,VWS V14.00,2013-05-01 08:51:00,
2013-05-01 04:56:00,56.1,47.5,30.24,ENE,60,3.4,3.8,73,0.00,,BKN017,0.00,VWS V14.00,2013-05-01 08:56:00,
2013-05-01 05:01:00,56.1,47.5,30.24,ESE,105,2.5,2.7,73,0.00,,OVC017,0.00,VWS V14.00,2013-05-01 09:01:00,
2013-05-01 05:06:00,56.1,47.5,30.24,ESE,105,0.0,0.0,73,0.00,,OVC017,0.00,VWS V14.00,2013-05-01 09:06:00,
2013-05-01 05:11:00,55.9,47.7,30.24,ENE,72,0.0,0.0,74,0.00,,OVC017,0.00,VWS V14.00,2013-05-01 09:11:00,
2013-05-01 05:17:00,55.9,47.7,30.24,ENE,72,0.0,0.0,74,0.00,,OVC017,0.00,VWS V14.00,2013-05-01 09:17:00,
2013-05-01 05:22:00,55.9,47.7,30.24,ENE,72,0.0,0.0,74,0.00,,OVC017,0.00,VWS V14.00,2013-05-01 09:22:00,
2013-05-01 05:27:00,55.9,47.7,30.24,ENE,72,2.5,2.7,74,0.00,,OVC017,0.00,VWS V14.00,2013-05-01 09:27:00,
2013-05-01 05:32:00,55.7,47.9,30.24,South,175,2.5,2.7,75,0.00,,OVC017,0.00,VWS V14.00,2013-05-01 09:32:00,
2013-05-01 05:37:00,55.7,47.9,30.24,South,175,0.0,0.0,75,0.00,,OVC017,0.00,VWS V14.00,2013-05-01 09:37:00,
2013-05-01 05:42:00,55.7,47.9,30.24,South,175,0.0,0.0,75,0.00,,OVC017,0.00,VWS V14.00,2013-05-01 09:42:00,
2013-05-01 05:47:00,55.7,47.9,30.24,South,175,0.0,0.0,75,0.00,,OVC017,0.00,VWS V14.00,2013-05-01 09:47:00,
2013-05-01 05:52:00,55.7,47.9,30.24,South,175,0.0,0.0,75,0.00,,OVC017,0.00,VWS V14.00,2013-05-01 09:52:00,
2013-05-01 05:57:00,55.5,48.4,30.24,NNW,342,0.0,0.0,77,0.00,,OVC017,0.00,VWS V14.00,2013-05-01 09:57:00,
2013-05-01 06:02:00,55.3,48.6,30.24,NNW,342,0.0,2.7,78,0.00,,OVC017,0.00,VWS V14.00,2013-05-01 10:02:00,
2013-05-01 06:08:00,55.3,48.6,30.24,West,264,0.0,0.0,78,0.00,,OVC017,0.00,VWS V14.00,2013-05-01 10:08:00,
2013-05-01 06:13:00,55.3,48.6,30.24,West,264,0.0,0.0,78,0.00,,OVC017,0.00,VWS V14.00,2013-05-01 10:13:00,
2013-05-01 06:18:00,55.3,48.6,30.24,West,264,0.0,0.0,78,0.00,,OVC017,0.00,VWS V14.00,2013-05-01 10:18:00,
2013-05-01 06:23:00,55.1,48.4,30.24,West,264,0.0,0.0,78,0.00,,OVC017,0.00,VWS V14.00,2013-05-01 10:23:00,
2013-05-01 06:28:00,55.1,48.8,30.24,West,264,0.0,0.0,79,0.00,,OVC017,0.00,VWS V14.00,2013-05-01 10:28:00,
2013-05-01 06:33:00,55.1,48.8,30.24,West,264,0.0,0.0,79,0.00,,OVC017,0.00,VWS V14.00,2013-05-01 10:33:00,
2013-05-01 06:38:00,55.1,49.1,30.24,West,264,0.0,0.0,80,0.00,,OVC017,0.00,VWS V14.00,2013-05-01 10:38:00,
2013-05-01 06:43:00,55.1,49.4,30.24,West,264,0.0,0.0,81,0.00,,OVC017,0.00,VWS V14.00,2013-05-01 10:43:00,
2013-05-01 06:48:00,55.1,49.4,30.27,West,264,0.0,0.0,81,0.00,,OVC017,0.00,VWS V14.00,2013-05-01 10:48:00,
2013-05-01 06:53:00,55.1,49.4,30.27,West,264,0.0,0.0,81,0.00,,OVC017,0.00,VWS V14.00,2013-05-01 10:53:00,
2013-05-01 06:58:00,55.0,49.2,30.27,West,264,0.0,0.0,81,0.00,,OVC017,0.00,VWS V14.00,2013-05-01 10:58:00,
2013-05-01 07:04:00,55.1,49.4,30.27,West,264,0.0,0.0,81,0.00,,OVC015,0.00,VWS V14.00,2013-05-01 11:04:00,
2013-05-01 07:09:00,55.1,49.8,30.27,West,264,0.0,0.0,82,0.00,,OVC015,0.00,VWS V14.00,2013-05-01 11:09:00,
2013-05-01 07:14:00,55.1,49.8,30.27,West,265,0.0,0.0,82,0.00,,OVC015,0.00,VWS V14.00,2013-05-01 11:14:00,
2013-05-01 07:19:00,55.3,49.9,30.27,West,264,0.0,0.0,82,0.00,,OVC015,0.00,VWS V14.00,2013-05-01 11:19:00,
2013-05-01 07:24:00,55.3,49.9,30.27,NNE,20,0.0,0.0,82,0.00,,OVC015,0.00,VWS V14.00,2013-05-01 11:24:00,
2013-05-01 07:29:00,55.3,49.9,30.27,NNE,20,0.0,0.0,82,0.00,,OVC015,0.00,VWS V14.00,2013-05-01 11:29:00,
2013-05-01 07:34:00,55.1,50.1,30.27,NNE,21,0.0,0.0,83,0.00,,OVC015,0.00,VWS V14.00,2013-05-01 11:34:00,
2013-05-01 07:39:00,55.0,50.2,30.27,NNW,336,2.5,3.2,84,0.00,,OVC015,0.00,VWS V14.00,2013-05-01 11:39:00,
2013-05-01 07:44:00,55.3,50.6,30.27,North,357,0.0,2.7,84,0.00,,OVC015,0.00,VWS V14.00,2013-05-01 11:44:00,
2013-05-01 07:49:00,55.3,50.6,30.27,East,82,2.5,3.2,84,0.00,,OVC015,0.00,VWS V14.00,2013-05-01 11:49:00,
2013-05-01 07:54:00,55.5,50.8,30.27,East,82,0.0,3.8,84,0.00,,OVC015,0.00,VWS V14.00,2013-05-01 11:54:00,
2013-05-01 07:59:00,55.7,50.9,30.27,NNE,17,0.0,2.7,84,0.00,,OVC015,0.00,VWS V14.00,2013-05-01 11:59:00,
2013-05-01 08:04:00,55.7,50.9,30.29,NNE,17,2.5,2.7,84,0.00,,OVC017,0.00,VWS V14.00,2013-05-01 12:04:00,
2013-05-01 08:09:00,55.9,51.1,30.29,NE,34,0.0,0.0,84,0.00,,OVC017,0.00,VWS V14.00,2013-05-01 12:09:00,
2013-05-01 08:15:00,55.9,51.4,30.29,NE,34,0.0,0.0,85,0.00,,OVC017,0.00,VWS V14.00,2013-05-01 12:15:00,
2013-05-01 08:20:00,55.9,51.8,30.29,NE,34,0.0,3.2,86,0.00,,OVC017,0.00,VWS V14.00,2013-05-01 12:20:00,
2013-05-01 08:25:00,56.1,51.9,30.29,NW,304,3.0,3.8,86,0.00,,OVC017,0.00,VWS V14.00,2013-05-01 12:25:00,
2013-05-01 08:30:00,56.2,52.1,30.29,North,5,3.0,3.2,86,0.00,,OVC017,0.00,VWS V14.00,2013-05-01 12:30:00,
2013-05-01 08:35:00,56.4,52.0,30.29,NE,34,2.5,3.2,85,0.00,,OVC017,0.00,VWS V14.00,2013-05-01 12:35:00,
2013-05-01 08:40:00,56.6,51.8,30.29,NNW,334,3.0,3.8,84,0.00,,OVC017,0.00,VWS V14.00,2013-05-01 12:40:00,
2013-05-01 08:45:00,56.8,52.0,30.29,North,11,2.5,2.7,84,0.00,,OVC017,0.00,VWS V14.00,2013-05-01 12:45:00,
2013-05-01 08:50:00,56.8,51.7,30.29,NNW,340,3.0,4.8,83,0.00,,OVC017,0.00,VWS V14.00,2013-05-01 12:50:00,
2013-05-01 08:56:00,56.8,51.7,30.29,North,7,3.0,3.2,83,0.00,,OVC017,0.00,VWS V14.00,2013-05-01 12:56:00,
2013-05-01 09:01:00,57.0,51.6,30.29,NNW,331,3.0,3.8,82,0.00,,OVC017,0.00,VWS V14.00,2013-05-01 13:01:00,
2013-05-01 09:06:00,57.2,51.7,30.29,North,353,3.0,3.8,82,0.00,,OVC019,0.00,VWS V14.00,2013-05-01 13:06:00,
2013-05-01 09:11:00,57.5,51.8,30.29,NW,318,0.0,0.0,81,0.00,,OVC019,0.00,VWS V14.00,2013-05-01 13:11:00,
2013-05-01 09:16:00,57.7,51.6,30.29,NE,54,2.5,3.8,80,0.00,,OVC019,0.00,VWS V14.00,2013-05-01 13:16:00,
2013-05-01 09:21:00,57.9,51.5,30.29,North,10,2.5,3.2,79,0.00,,OVC019,0.00,VWS V14.00,2013-05-01 13:21:00,
2013-05-01 09:26:00,58.3,51.1,30.29,ESE,106,0.0,3.2,77,0.00,,OVC019,0.00,VWS V14.00,2013-05-01 13:26:00,
2013-05-01 09:31:00,58.5,50.6,30.29,ESE,105,0.0,0.0,75,0.00,,OVC019,0.00,VWS V14.00,2013-05-01 13:31:00,
2013-05-01 09:36:00,58.5,49.9,30.29,SE,124,2.5,3.8,73,0.00,,OVC019,0.00,VWS V14.00,2013-05-01 13:36:00,
2013-05-01 09:41:00,58.5,49.5,30.29,NE,43,3.0,3.2,72,0.00,,OVC019,0.00,VWS V14.00,2013-05-01 13:41:00,
2013-05-01 09:46:00,58.5,49.1,30.29,NW,322,2.5,3.2,71,0.00,,OVC019,0.00,VWS V14.00,2013-05-01 13:46:00,
2013-05-01 09:52:00,58.5,48.7,30.29,NW,313,3.0,3.2,70,0.00,,OVC019,0.00,VWS V14.00,2013-05-01 13:52:00,
2013-05-01 09:57:00,58.7,48.5,30.29,SE,140,3.0,3.8,69,0.00,,OVC019,0.00,VWS V14.00,2013-05-01 13:57:00,
2013-05-01 10:02:00,58.8,48.7,30.29,SSE,166,3.9,7.0,69,0.00,,BKN019,0.00,VWS V14.00,2013-05-01 14:02:00,
2013-05-01 10:07:00,59.0,48.9,30.29,NE,44,0.0,0.0,69,0.00,,BKN019,0.00,VWS V14.00,2013-05-01 14:07:00,
2013-05-01 10:12:00,59.0,48.5,30.29,North,357,2.5,2.7,68,0.00,,BKN019,0.00,VWS V14.00,2013-05-01 14:12:00,
2013-05-01 10:17:00,59.4,49.2,30.29,NNW,344,2.5,3.2,69,0.00,,BKN019,0.00,VWS V14.00,2013-05-01 14:17:00,
2013-05-01 10:22:00,59.6,49.0,30.29,SE,129,0.0,3.2,68,0.00,,BKN019,0.00,VWS V14.00,2013-05-01 14:22:00,
2013-05-01 10:27:00,59.6,48.2,30.29,SSW,206,2.5,3.8,66,0.00,,BKN019,0.00,VWS V14.00,2013-05-01 14:27:00,
2013-05-01 10:32:00,60.0,48.6,30.29,SW,217,2.5,2.7,66,0.00,,BKN019,0.00,VWS V14.00,2013-05-01 14:32:00,
2013-05-01 10:37:00,60.3,48.5,30.29,ESE,112,0.0,4.3,65,0.00,,BKN019,0.00,VWS V14.00,2013-05-01 14:37:00,
2013-05-01 10:42:00,60.9,48.6,30.29,SSE,149,3.4,3.8,64,0.00,,BKN019,0.00,VWS V14.00,2013-05-01 14:42:00,
2013-05-01 10:47:00,60.9,48.2,30.29,NNE,18,3.0,3.8,63,0.00,,BKN019,0.00,VWS V14.00,2013-05-01 14:47:00,
2013-05-01 10:52:00,60.9,47.8,30.29,ESE,111,0.0,2.7,62,0.00,,BKN019,0.00,VWS V14.00,2013-05-01 14:52:00,
2013-05-01 10:57:00,61.6,48.9,30.29,NNW,340,0.0,4.3,63,0.00,,BKN019,0.00,VWS V14.00,2013-05-01 14:57:00,
2013-05-01 11:02:00,62.0,49.3,30.29,SE,133,0.0,2.7,63,0.00,,OVC023,0.00,VWS V14.00,2013-05-01 15:02:00,
2013-05-01 11:07:00,62.4,48.8,30.29,NNE,32,2.5,4.3,61,0.00,,OVC023,0.00,VWS V14.00,2013-05-01 15:07:00,
2013-05-01 11:13:00,62.5,48.9,30.29,SSW,192,6.4,9.7,61,0.00,,OVC023,0.00,VWS V14.00,2013-05-01 15:13:00,
2013-05-01 11:18:00,63.3,49.2,30.29,SSE,157,3.0,3.8,60,0.00,,OVC023,0.00,VWS V14.00,2013-05-01 15:18:00,
2013-05-01 11:23:00,63.1,48.6,30.29,North,353,0.0,2.7,59,0.00,,OVC023,0.00,VWS V14.00,2013-05-01 15:23:00,
2013-05-01 11:28:00,63.8,48.8,30.29,SSW,194,4.4,4.8,58,0.00,,OVC023,0.00,VWS V14.00,2013-05-01 15:28:00,
2013-05-01 11:33:00,64.6,48.6,30.29,ENE,75,3.4,4.8,56,0.00,,OVC023,0.00,VWS V14.00,2013-05-01 15:33:00,
2013-05-01 11:38:00,64.0,47.6,30.29,SSW,197,3.4,3.8,55,0.00,,OVC023,0.00,VWS V14.00,2013-05-01 15:38:00,
2013-05-01 11:43:00,64.4,47.9,30.29,SE,142,3.4,3.8,55,0.00,,OVC023,0.00,VWS V14.00,2013-05-01 15:43:00,
2013-05-01 11:48:00,64.4,47.4,30.29,ENE,60,0.0,2.7,54,0.00,,OVC023,0.00,VWS V14.00,2013-05-01 15:48:00,
2013-05-01 11:53:00,64.6,47.1,30.29,NE,49,0.0,3.2,53,0.00,,OVC023,0.00,VWS V14.00,2013-05-01 15:53:00,
2013-05-01 11:58:00,64.4,46.4,30.29,ENE,61,0.0,3.2,52,0.00,,OVC023,0.00,VWS V14.00,2013-05-01 15:58:00,
2013-05-01 12:03:00,65.0,47.4,30.29,WNW,290,2.5,4.3,53,0.00,,BKN029,0.00,VWS V14.00,2013-05-01 16:03:00,
2013-05-01 12:08:00,65.7,47.6,30.29,East,95,3.0,4.8,52,0.00,,BKN029,0.00,VWS V14.00,2013-05-01 16:08:00,
2013-05-01 12:13:00,66.4,47.3,30.29,WNW,290,3.4,4.3,50,0.00,,BKN029,0.00,VWS V14.00,2013-05-01 16:13:00,
2013-05-01 12:18:00,67.2,47.9,30.29,West,259,6.4,7.5,50,0.00,,BKN029,0.00,VWS V14.00,2013-05-01 16:18:00,
2013-05-01 12:23:00,66.8,47.1,30.29,South,189,0.0,4.3,49,0.00,,BKN029,0.00,VWS V14.00,2013-05-01 16:23:00,
2013-05-01 12:29:00,66.4,46.2,30.29,NNW,331,3.9,5.9,48,0.00,,BKN029,0.00,VWS V14.00,2013-05-01 16:29:00,
2013-05-01 12:34:00,67.4,47.0,30.29,East,86,4.9,5.4,48,0.00,,BKN029,0.00,VWS V14.00,2013-05-01 16:34:00,
2013-05-01 12:39:00,66.8,46.5,30.29,SSW,203,0.0,0.0,48,0.00,,BKN029,0.00,VWS V14.00,2013-05-01 16:39:00,
2013-05-01 12:44:00,67.0,46.7,30.29,North,10,3.9,4.3,48,0.00,,BKN029,0.00,VWS V14.00,2013-05-01 16:44:00,
2013-05-01 12:49:00,68.1,46.6,30.29,SE,128,0.0,3.2,46,0.00,,BKN031,0.00,VWS V14.00,2013-05-01 16:49:00,
2013-05-01 12:54:00,67.7,47.9,30.29,WSW,237,3.4,3.8,49,0.00,,BKN031,0.00,VWS V14.00,2013-05-01 16:54:00,
2013-05-01 12:59:00,68.7,47.1,30.29,East,99,3.4,3.8,46,0.00,,BKN031,0.00,VWS V14.00,2013-05-01 16:59:00,
2013-05-01 13:04:00,68.8,46.7,30.29,NNE,27,3.0,6.4,45,0.00,,SCT035,0.00,VWS V14.00,2013-05-01 17:04:00,
2013-05-01 13:10:00,68.1,46.0,30.29,NNW,345,3.9,4.3,45,0.00,,SCT035,0.00,VWS V14.00,2013-05-01 17:10:00,
2013-05-01 13:15:00,70.2,47.8,30.29,South,180,5.4,5.9,45,0.00,,SCT035,0.00,VWS V14.00,2013-05-01 17:15:00,
2013-05-01 13:20:00,70.9,47.9,30.29,South,190,3.9,4.8,44,0.00,,SCT035,0.00,VWS V14.00,2013-05-01 17:20:00,
2013-05-01 13:25:00,70.3,47.4,30.29,WSW,244,3.4,4.3,44,0.00,,SCT035,0.00,VWS V14.00,2013-05-01 17:25:00,
2013-05-01 13:30:00,69.6,46.1,30.29,East,86,3.0,5.9,43,0.00,,SCT035,0.00,VWS V14.00,2013-05-01 17:30:00,
2013-05-01 13:35:00,70.2,44.7,30.27,East,84,3.0,4.8,40,0.00,,SCT035,0.00,VWS V14.00,2013-05-01 17:35:00,
2013-05-01 13:40:00,70.7,44.6,30.27,ESE,106,4.4,7.0,39,0.00,,SCT035,0.00,VWS V14.00,2013-05-01 17:40:00,
2013-05-01 13:45:00,71.3,45.1,30.27,SSE,152,3.9,4.3,39,0.00,,SCT035,0.00,VWS V14.00,2013-05-01 17:45:00,
2013-05-01 13:50:00,72.0,45.7,30.27,SSE,155,6.4,7.0,39,0.00,,SCT035,0.00,VWS V14.00,2013-05-01 17:50:00,
2013-05-01 13:55:00,71.8,44.2,30.27,SE,144,5.9,9.1,37,0.00,,SCT035,0.00,VWS V14.00,2013-05-01 17:55:00,
2013-05-01 14:00:00,72.0,44.3,30.27,South,169,3.9,4.8,37,0.00,,SCT035,0.00,VWS V14.00,2013-05-01 18:00:00,
2013-05-01 14:06:00,72.0,44.3,30.29,South,186,8.4,9.7,37,0.00,,OVC046,0.00,VWS V14.00,2013-05-01 18:06:00,
2013-05-01 14:11:00,72.4,44.7,30.29,ESE,107,5.9,7.0,37,0.00,,OVC046,0.00,VWS V14.00,2013-05-01 18:11:00,
2013-05-01 14:16:00,73.1,45.3,30.29,SSE,148,6.9,7.5,37,0.00,,OVC046,0.00,VWS V14.00,2013-05-01 18:16:00,
2013-05-01 14:21:00,72.4,44.0,30.27,East,82,5.4,5.9,36,0.00,,OVC046,0.00,VWS V14.00,2013-05-01 18:21:00,
2013-05-01 14:26:00,72.4,44.0,30.27,NW,324,6.9,7.5,36,0.00,,OVC046,0.00,VWS V14.00,2013-05-01 18:26:00,
2013-05-01 14:31:00,73.1,43.9,30.29,ENE,74,4.9,9.7,35,0.00,,OVC046,0.00,VWS V14.00,2013-05-01 18:31:00,
2013-05-01 14:36:00,73.5,44.2,30.29,SE,130,3.4,4.8,35,0.00,,OVC046,0.00,VWS V14.00,2013-05-01 18:36:00,
2013-05-01 14:41:00,73.1,43.9,30.29,ENE,61,3.4,4.3,35,0.00,,OVC046,0.00,VWS V14.00,2013-05-01 18:41:00,
2013-05-01 14:46:00,72.0,42.9,30.29,ENE,74,3.0,3.8,35,0.00,,OVC046,0.00,VWS V14.00,2013-05-01 18:46:00,
2013-05-01 14:51:00,72.0,43.6,30.29,ENE,71,2.5,5.9,36,0.00,,OVC046,0.00,VWS V14.00,2013-05-01 18:51:00,
2013-05-01 14:56:00,73.3,44.8,30.29,NE,49,3.0,4.3,36,0.00,,OVC046,0.00,VWS V14.00,2013-05-01 18:56:00,
2013-05-01 15:01:00,73.1,43.9,30.27,East,96,3.0,4.8,35,0.00,,OVC046,0.00,VWS V14.00,2013-05-01 19:01:00,
2013-05-01 15:07:00,73.1,43.9,30.27,East,79,3.9,4.3,35,0.00,,BKN042,0.00,VWS V14.00,2013-05-01 19:07:00,
2013-05-01 15:12:00,73.9,44.5,30.27,WNW,292,3.9,4.3,35,0.00,,BKN042,0.00,VWS V14.00,2013-05-01 19:12:00,
2013-05-01 15:17:00,74.2,45.6,30.27,SE,127,3.9,6.4,36,0.00,,BKN042,0.00,VWS V14.00,2013-05-01 19:17:00,
2013-05-01 15:22:00,74.4,45.0,30.27,North,353,4.4,4.8,35,0.00,,BKN042,0.00,VWS V14.00,2013-05-01 19:22:00,
2013-05-01 15:27:00,74.1,43.9,30.27,East,100,3.4,6.4,34,0.00,,BKN042,0.00,VWS V14.00,2013-05-01 19:27:00,
2013-05-01 15:32:00,74.1,44.7,30.27,WNW,284,8.9,9.7,35,0.00,,BKN042,0.00,VWS V14.00,2013-05-01 19:32:00,
2013-05-01 15:37:00,74.2,44.1,30.27,ENE,58,3.4,6.4,34,0.00,,BKN042,0.00,VWS V14.00,2013-05-01 19:37:00,
2013-05-01 15:42:00,74.1,43.9,30.27,ENE,69,5.4,6.4,34,0.00,,BKN042,0.00,VWS V14.00,2013-05-01 19:42:00,
2013-05-01 15:47:00,73.7,43.6,30.27,South,171,5.4,7.0,34,0.00,,BKN042,0.00,VWS V14.00,2013-05-01 19:47:00,
2013-05-01 15:52:00,73.9,43.8,30.27,NNE,32,3.9,4.3,34,0.00,,BKN042,0.00,VWS V14.00,2013-05-01 19:52:00,
2013-05-01 15:57:00,74.2,44.1,30.27,SSE,167,5.9,9.7,34,0.00,,BKN042,0.00,VWS V14.00,2013-05-01 19:57:00,
2013-05-01 16:02:00,74.1,43.9,30.27,NNW,335,3.4,4.8,34,0.00,,BKN042,0.00,VWS V14.00,2013-05-01 20:02:00,
2013-05-01 16:07:00,74.1,45.4,30.27,West,279,3.0,6.4,36,0.00,,BKN042,0.00,VWS V14.00,2013-05-01 20:07:00,
2013-05-01 16:12:00,74.4,44.2,30.27,WNW,289,3.0,4.3,34,0.00,,BKN042,0.00,VWS V14.00,2013-05-01 20:12:00,
2013-05-01 16:17:00,74.8,43.8,30.27,ENE,70,5.9,6.4,33,0.00,,BKN042,0.00,VWS V14.00,2013-05-01 20:17:00,
2013-05-01 16:23:00,74.8,43.8,30.27,ENE,77,3.9,5.4,33,0.00,,BKN042,0.00,VWS V14.00,2013-05-01 20:23:00,
2013-05-01 16:28:00,74.1,43.1,30.27,East,90,3.4,6.4,33,0.00,,BKN042,0.00,VWS V14.00,2013-05-01 20:28:00,
2013-05-01 16:33:00,74.1,43.1,30.27,East,92,5.9,9.7,33,0.00,,BKN042,0.00,VWS V14.00,2013-05-01 20:33:00,
2013-05-01 16:38:00,74.4,43.5,30.27,WNW,291,3.4,3.8,33,0.00,,BKN042,0.00,VWS V14.00,2013-05-01 20:38:00,
2013-05-01 16:43:00,74.6,43.6,30.27,South,173,6.4,7.5,33,0.00,,BKN042,0.00,VWS V14.00,2013-05-01 20:43:00,
2013-05-01 16:48:00,74.8,43.8,30.27,East,91,0.0,3.8,33,0.00,,BKN042,0.00,VWS V14.00,2013-05-01 20:48:00,
2013-05-01 16:53:00,74.6,43.6,30.27,NNW,337,3.4,3.8,33,0.00,,BKN042,0.00,VWS V14.00,2013-05-01 20:53:00,
2013-05-01 16:58:00,73.9,43.0,30.27,WNW,294,3.0,7.0,33,0.00,,BKN042,0.00,VWS V14.00,2013-05-01 20:58:00,
2013-05-01 17:03:00,74.4,43.5,30.27,North,350,4.4,4.8,33,0.00,,FEW047,0.00,VWS V14.00,2013-05-01 21:03:00,
2013-05-01 17:08:00,74.6,43.6,30.27,East,85,3.9,9.9,33,0.00,,FEW047,0.00,VWS V14.00,2013-05-01 21:08:00,
2013-05-01 17:13:00,74.8,43.8,30.27,East,81,3.9,4.3,33,0.00,,FEW047,0.00,VWS V14.00,2013-05-01 21:13:00,
2013-05-01 17:18:00,75.0,44.0,30.27,WNW,293,3.9,7.5,33,0.00,,FEW047,0.00,VWS V14.00,2013-05-01 21:18:00,
2013-05-01 17:23:00,74.1,42.3,30.27,East,94,3.4,3.8,32,0.00,,FEW047,0.00,VWS V14.00,2013-05-01 21:23:00,
2013-05-01 17:28:00,74.1,43.1,30.27,SE,143,2.5,3.8,33,0.00,,FEW047,0.00,VWS V14.00,2013-05-01 21:28:00,
2013-05-01 17:33:00,74.1,43.1,30.27,NNW,343,5.9,6.4,33,0.00,,FEW047,0.00,VWS V14.00,2013-05-01 21:33:00,
2013-05-01 17:38:00,74.2,43.3,30.27,ENE,78,4.4,7.0,33,0.00,,FEW047,0.00,VWS V14.00,2013-05-01 21:38:00,
2013-05-01 17:43:00,73.7,42.0,30.27,ENE,57,3.0,4.3,32,0.00,,FEW047,0.00,VWS V14.00,2013-05-01 21:43:00,
2013-05-01 17:48:00,73.5,41.9,30.27,SE,133,5.9,7.0,32,0.00,,FEW047,0.00,VWS V14.00,2013-05-01 21:48:00,
2013-05-01 17:54:00,73.1,41.5,30.27,ESE,105,3.9,4.8,32,0.00,,FEW047,0.00,VWS V14.00,2013-05-01 21:54:00,
2013-05-01 17:59:00,72.8,41.2,30.27,East,101,3.9,4.8,32,0.00,,FEW047,0.00,VWS V14.00,2013-05-01 21:59:00,
2013-05-01 18:04:00,72.0,40.6,30.27,East,81,3.0,4.8,32,0.00,,FEW049,0.00,VWS V14.00,2013-05-01 22:04:00,
2013-05-01 18:09:00,71.4,40.1,30.27,ENE,75,3.4,4.8,32,0.00,,FEW049,0.00,VWS V14.00,2013-05-01 22:09:00,
2013-05-01 18:14:00,71.6,40.2,30.27,ENE,76,3.4,4.3,32,0.00,,FEW049,0.00,VWS V14.00,2013-05-01 22:14:00,
2013-05-01 18:19:00,71.3,39.9,30.27,SE,143,6.4,7.0,32,0.00,,FEW049,0.00,VWS V14.00,2013-05-01 22:19:00,
2013-05-01 18:24:00,71.3,39.9,30.27,ESE,120,3.4,4.8,32,0.00,,FEW049,0.00,VWS V14.00,2013-05-01 22:24:00,
2013-05-01 18:29:00,70.7,40.2,30.27,ENE,75,3.4,4.3,33,0.00,,FEW049,0.00,VWS V14.00,2013-05-01 22:29:00,
2013-05-01 18:34:00,70.3,39.9,30.27,ENE,60,3.0,3.8,33,0.00,,FEW049,0.00,VWS V14.00,2013-05-01 22:34:00,
2013-05-01 18:39:00,70.3,39.9,30.27,ENE,65,0.0,3.2,33,0.00,,FEW049,0.00,VWS V14.00,2013-05-01 22:39:00,
2013-05-01 18:44:00,70.2,39.7,30.27,ESE,106,3.9,4.8,33,0.00,,FEW049,0.00,VWS V14.00,2013-05-01 22:44:00,
2013-05-01 18:49:00,69.6,38.5,30.27,SSE,160,3.9,6.4,32,0.00,,FEW049,0.00,VWS V14.00,2013-05-01 22:49:00,
2013-05-01 18:54:00,69.4,38.3,30.27,East,93,3.4,4.8,32,0.00,,FEW049,0.00,VWS V14.00,2013-05-01 22:54:00,
2013-05-01 18:59:00,69.2,38.1,30.27,ENE,57,2.5,4.3,32,0.00,,FEW049,0.00,VWS V14.00,2013-05-01 22:59:00,
2013-05-01 19:04:00,68.8,37.8,30.27,ENE,72,3.4,4.8,32,0.00,,OVC049,0.00,VWS V14.00,2013-05-01 23:04:00,
2013-05-01 19:10:00,68.8,38.6,30.27,ESE,116,3.0,3.2,33,0.00,,OVC049,0.00,VWS V14.00,2013-05-01 23:10:00,
2013-05-01 19:15:00,68.7,38.4,30.27,ESE,109,3.0,3.2,33,0.00,,OVC049,0.00,VWS V14.00,2013-05-01 23:15:00,
2013-05-01 19:20:00,68.1,38.0,30.27,East,82,2.5,3.2,33,0.00,,OVC049,0.00,VWS V14.00,2013-05-01 23:20:00,
2013-05-01 19:25:00,67.7,36.8,30.27,East,86,3.0,4.8,32,0.00,,OVC049,0.00,VWS V14.00,2013-05-01 23:25:00,
2013-05-01 19:30:00,67.4,36.5,30.27,ENE,76,2.5,4.3,32,0.00,,OVC049,0.00,VWS V14.00,2013-05-01 23:30:00,
2013-05-01 19:35:00,67.0,36.2,30.27,ESE,104,3.4,4.3,32,0.00,,OVC049,0.00,VWS V14.00,2013-05-01 23:35:00,
2013-05-01 19:40:00,66.6,35.9,30.27,ENE,58,4.4,4.8,32,0.00,,OVC049,0.00,VWS V14.00,2013-05-01 23:40:00,
2013-05-01 19:45:00,66.4,35.7,30.27,East,89,3.4,4.8,32,0.00,,OVC049,0.00,VWS V14.00,2013-05-01 23:45:00,
2013-05-01 19:50:00,66.3,35.5,30.27,East,94,2.5,3.8,32,0.00,,OVC049,0.00,VWS V14.00,2013-05-01 23:50:00,
2013-05-01 19:55:00,65.9,35.2,30.27,ENE,63,3.9,4.3,32,0.00,,OVC049,0.00,VWS V14.00,2013-05-01 23:55:00,
2013-05-01 20:00:00,65.5,34.9,30.27,NE,36,3.0,3.2,32,0.00,,OVC049,0.00,VWS V14.00,2013-05-02 00:00:00,
2013-05-01 20:05:00,65.2,35.3,30.27,East,89,3.0,3.2,33,0.00,,OVC049,0.00,VWS V14.00,2013-05-02 00:05:00,
2013-05-01 20:10:00,64.8,35.0,30.27,SE,130,0.0,3.8,33,0.00,,OVC049,0.00,VWS V14.00,2013-05-02 00:10:00,
2013-05-01 20:15:00,64.4,34.7,30.27,East,87,3.4,3.8,33,0.00,,OVC049,0.00,VWS V14.00,2013-05-02 00:15:00,
2013-05-01 20:21:00,64.0,34.4,30.27,ENE,74,3.4,3.8,33,0.00,,OVC049,0.00,VWS V14.00,2013-05-02 00:21:00,
2013-05-01 20:26:00,63.8,34.2,30.27,East,83,3.4,4.3,33,0.00,,OVC049,0.00,VWS V14.00,2013-05-02 00:26:00,
2013-05-01 20:31:00,63.5,33.9,30.27,ESE,111,0.0,0.0,33,0.00,,OVC049,0.00,VWS V14.00,2013-05-02 00:31:00,
2013-05-01 20:36:00,63.5,33.9,30.29,ENE,74,0.0,0.0,33,0.00,,OVC049,0.00,VWS V14.00,2013-05-02 00:36:00,
2013-05-01 20:41:00,63.1,34.3,30.29,East,88,0.0,3.2,34,0.00,,OVC049,0.00,VWS V14.00,2013-05-02 00:41:00,
2013-05-01 20:46:00,62.9,34.2,30.29,ESE,112,2.5,2.7,34,0.00,,OVC049,0.00,VWS V14.00,2013-05-02 00:46:00,
2013-05-01 20:51:00,62.9,34.2,30.29,ENE,59,0.0,2.7,34,0.00,,OVC049,0.00,VWS V14.00,2013-05-02 00:51:00,
2013-05-01 20:56:00,62.7,34.0,30.29,East,81,0.0,3.2,34,0.00,,OVC049,0.00,VWS V14.00,2013-05-02 00:56:00,
2013-05-01 21:01:00,62.7,34.0,30.29,NE,53,3.9,4.8,34,0.00,,OVC049,0.00,VWS V14.00,2013-05-02 01:01:00,
2013-05-01 21:06:00,62.5,33.8,30.29,NNE,18,3.0,3.2,34,0.00,,OVC049,0.00,VWS V14.00,2013-05-02 01:06:00,
2013-05-01 21:11:00,62.4,33.7,30.29,NNW,333,4.4,4.8,34,0.00,,OVC049,0.00,VWS V14.00,2013-05-02 01:11:00,
2013-05-01 21:16:00,62.2,33.5,30.29,ESE,102,0.0,2.7,34,0.00,,OVC049,0.00,VWS V14.00,2013-05-02 01:16:00,
2013-05-01 21:21:00,62.2,33.5,30.29,NNE,16,0.0,3.2,34,0.00,,OVC049,0.00,VWS V14.00,2013-05-02 01:21:00,
2013-05-01 21:26:00,61.8,33.2,30.29,NNE,22,3.0,3.8,34,0.00,,OVC049,0.00,VWS V14.00,2013-05-02 01:26:00,
2013-05-01 21:31:00,61.6,33.0,30.29,East,100,0.0,0.0,34,0.00,,OVC049,0.00,VWS V14.00,2013-05-02 01:31:00,
2013-05-01 21:36:00,61.4,33.6,30.29,NE,40,2.5,4.3,35,0.00,,OVC049,0.00,VWS V14.00,2013-05-02 01:36:00,
2013-05-01 21:41:00,61.4,33.6,30.29,SE,144,0.0,2.7,35,0.00,,OVC049,0.00,VWS V14.00,2013-05-02 01:41:00,
2013-05-01 21:47:00,61.2,33.4,30.29,SSE,154,0.0,0.0,35,0.00,,OVC049,0.00,VWS V14.00,2013-05-02 01:47:00,
2013-05-01 21:52:00,60.9,33.1,30.29,ENE,73,3.0,3.8,35,0.00,,OVC049,0.00,VWS V14.00,2013-05-02 01:52:00,
2013-05-01 21:57:00,60.7,33.6,30.29,West,278,0.0,2.7,36,0.00,,OVC049,0.00,VWS V14.00,2013-05-02 01:57:00,
2013-05-01 22:02:00,60.5,33.5,30.32,SSW,207,2.5,2.7,36,0.00,,OVC049,0.00,VWS V14.00,2013-05-02 02:02:00,
2013-05-01 22:07:00,60.5,33.5,30.32,WNW,291,3.0,3.2,36,0.00,,OVC049,0.00,VWS V14.00,2013-05-02 02:07:00,
2013-05-01 22:12:00,60.3,33.3,30.32,SSW,205,0.0,2.7,36,0.00,,OVC049,0.00,VWS V14.00,2013-05-02 02:12:00,
2013-05-01 22:17:00,60.3,33.3,30.32,NNE,28,0.0,3.8,36,0.00,,OVC049,0.00,VWS V14.00,2013-05-02 02:17:00,
2013-05-01 22:22:00,60.1,33.1,30.32,ENE,68,0.0,0.0,36,0.00,,OVC049,0.00,VWS V14.00,2013-05-02 02:22:00,
2013-05-01 22:27:00,59.8,32.8,30.32,NNE,32,0.0,3.8,36,0.00,,OVC049,0.00,VWS V14.00,2013-05-02 02:27:00,
2013-05-01 22:32:00,59.6,33.3,30.32,North,353,2.5,3.8,37,0.00,,OVC049,0.00,VWS V14.00,2013-05-02 02:32:00,
2013-05-01 22:37:00,59.8,33.5,30.32,SSE,152,2.5,3.2,37,0.00,,OVC049,0.00,VWS V14.00,2013-05-02 02:37:00,
2013-05-01 22:42:00,60.0,33.6,30.32,North,349,0.0,0.0,37,0.00,,OVC049,0.00,VWS V14.00,2013-05-02 02:42:00,
2013-05-01 22:47:00,59.6,33.3,30.32,North,6,0.0,3.8,37,0.00,,OVC049,0.00,VWS V14.00,2013-05-02 02:47:00,
2013-05-01 22:52:00,59.6,34.0,30.32,NW,326,2.5,4.3,38,0.00,,OVC049,0.00,VWS V14.00,2013-05-02 02:52:00,
2013-05-01 22:58:00,59.6,34.0,30.32,ENE,58,0.0,5.9,38,0.00,,OVC049,0.00,VWS V14.00,2013-05-02 02:58:00,
2013-05-01 23:03:00,59.8,34.1,30.32,North,357,0.0,0.0,38,0.00,,OVC047,0.00,VWS V14.00,2013-05-02 03:03:00,
2013-05-01 23:08:00,59.8,34.1,30.32,ESE,114,0.0,4.8,38,0.00,,OVC047,0.00,VWS V14.00,2013-05-02 03:08:00,
2013-05-01 23:13:00,59.8,34.1,30.32,ENE,75,3.0,3.8,38,0.00,,OVC047,0.00,VWS V14.00,2013-05-02 03:13:00,
2013-05-01 23:18:00,59.8,34.1,30.32,ESE,102,3.0,3.8,38,0.00,,OVC047,0.00,VWS V14.00,2013-05-02 03:18:00,
2013-05-01 23:23:00,59.6,34.0,30.32,East,79,3.4,3.8,38,0.00,,OVC047,0.00,VWS V14.00,2013-05-02 03:23:00,
2013-05-01 23:28:00,59.6,34.0,30.32,East,80,3.9,4.3,38,0.00,,OVC047,0.00,VWS V14.00,2013-05-02 03:28:00,
2013-05-01 23:33:00,59.6,34.0,30.32,East,83,4.4,4.8,38,0.00,,OVC047,0.00,VWS V14.00,2013-05-02 03:33:00,
2013-05-01 23:38:00,59.6,34.0,30.32,ENE,73,3.0,4.3,38,0.00,,OVC047,0.00,VWS V14.00,2013-05-02 03:38:00,
2013-05-01 23:43:00,59.6,34.0,30.32,East,83,0.0,4.3,38,0.00,,OVC047,0.00,VWS V14.00,2013-05-02 03:43:00,
2013-05-01 23:49:00,59.4,33.8,30.29,East,81,3.0,3.8,38,0.00,,OVC047,0.00,VWS V14.00,2013-05-02 03:49:00,
2013-05-01 23:54:00,59.4,33.8,30.29,ENE,70,3.4,3.8,38,0.00,,OVC047,0.00,VWS V14.00,2013-05-02 03:54:00,
2013-05-01 23:59:00,59.4,34.5,30.29,SE,129,2.5,4.3,39,0.00,,OVC047,0.00,VWS V14.00,2013-05-02 03:59:00,